ECMWFFLT1_500_spd_111.txt.gz
Wind_Speed
22 23 23 21 21 21 22 22 19 18 18 18 20 20 18 18 18 18 17 17 16 15 14 13 12 13 13 13 14 14 14 14 13 12 11 10 11 11 11 11 10 9 8 7 7 6 6 6 6 6 5 5 5 6 6 6 5 5 5 5 5 5 5
24 25 22 21 22 23 23 23 22 21 20 19 19 20 19 18 18 19 19 18 17 16 14 14 13 13 13 14 14 15 15 15 14 13 12 12 12 12 12 12 10 9 8 7 7 7 6 6 6 6 5 4 4 4 4 4 4 3 3 3 3 4 4
25 25 22 22 23 24 25 24 23 23 22 20 19 20 19 19 19 18 18 18 17 16 15 15 14 13 13 14 15 15 15 15 15 15 14 13 12 12 13 12 11 9 8 7 7 7 7 6 6 5 5 4 4 3 3 3 3 3 3 2 2 2 3
29 27 25 26 25 25 26 26 25 24 21 18 17 18 17 17 18 17 17 17 17 17 17 16 15 14 14 14 15 15 15 16 16 16 15 14 13 13 13 13 12 10 8 7 7 7 8 7 7 6 5 4 3 3 3 3 4 4 3 3 3 3 2
32 32 29 28 27 26 26 26 25 22 19 17 17 18 17 17 17 17 17 17 17 18 17 17 16 15 14 14 15 15 15 16 16 16 16 15 15 14 14 14 13 11 9 8 8 7 7 7 7 6 5 4 3 3 3 3 4 4 4 4 4 3 2
27 32 31 26 24 25 27 26 24 21 21 23 21 20 19 19 18 19 20 20 20 19 17 16 16 15 15 15 15 15 15 15 15 16 16 16 16 16 16 15 14 13 11 10 9 8 7 6 6 5 5 4 3 3 3 4 4 4 4 5 4 4 3
19 25 29 25 20 22 26 27 25 24 26 25 21 20 20 19 19 20 20 20 20 20 18 16 16 16 16 15 15 15 15 15 15 15 16 17 17 17 17 17 16 15 13 12 11 10 9 7 6 5 5 4 4 3 4 4 5 5 5 6 5 5 4
17 19 23 23 17 17 22 25 24 25 26 23 20 21 20 20 21 20 20 20 20 19 18 17 18 18 17 16 16 16 16 16 16 16 17 17 18 18 18 18 18 17 16 14 13 12 10 9 8 6 6 5 4 4 4 5 5 6 6 7 6 6 6
19 19 20 22 19 16 19 22 22 21 21 20 20 22 22 22 23 22 21 21 20 20 19 18 19 19 19 19 19 17 17 17 16 17 17 18 19 19 19 19 19 18 18 17 15 13 12 10 9 8 6 5 5 4 4 4 5 6 6 7 7 7 7
20 19 19 21 22 21 21 20 17 15 17 18 17 20 24 23 22 21 21 22 22 22 22 22 21 19 20 22 21 19 18 18 18 18 18 19 20 20 20 20 20 20 19 18 17 15 14 12 11 9 7 6 5 4 3 3 4 5 6 7 7 8 8
22 21 20 20 21 23 24 22 17 13 15 17 15 17 21 21 20 19 20 22 23 24 25 25 23 22 21 21 20 19 19 19 20 20 20 20 20 21 21 21 20 20 20 19 18 17 15 14 12 11 9 7 6 4 3 3 3 4 5 6 7 8 8
23 23 22 21 21 22 23 22 20 17 16 17 17 17 19 20 19 18 19 22 25 26 26 25 24 25 26 25 23 21 20 20 20 21 21 21 21 20 20 20 21 21 21 21 20 19 17 15 14 12 11 9 7 5 4 3 3 3 4 5 6 7 8
24 24 24 23 22 22 23 24 24 23 21 20 20 19 19 20 21 19 18 21 24 26 27 26 25 25 25 26 25 23 23 22 21 21 23 23 22 20 19 18 19 20 21 22 21 20 19 17 15 14 12 10 8 7 6 5 4 3 3 4 5 6 7
26 25 25 24 24 23 25 26 27 27 26 24 23 22 21 20 21 21 20 21 24 26 27 26 26 26 25 25 25 23 23 25 24 22 23 24 24 23 21 20 19 19 21 22 22 22 21 19 17 15 13 12 10 9 7 6 6 5 4 4 4 5 6
27 27 26 26 26 25 25 27 29 29 29 27 25 25 25 23 23 24 24 23 25 26 26 25 25 26 27 27 26 23 23 27 28 23 23 25 26 26 25 24 23 21 21 22 23 23 22 21 19 17 15 13 12 11 10 9 8 7 6 5 5 5 5
28 28 27 27 27 27 27 27 28 29 29 29 27 26 26 26 26 26 26 26 26 25 25 24 24 25 26 27 28 27 27 30 30 25 25 26 28 29 28 27 26 25 24 23 24 24 24 23 21 19 17 16 14 13 12 11 10 10 9 8 7 7 7
30 30 30 29 29 30 29 29 29 29 29 29 29 28 28 27 27 27 27 28 27 24 22 24 25 25 26 27 28 30 31 31 29 27 27 28 29 30 30 30 30 29 28 26 24 24 24 23 22 20 19 18 16 15 14 13 13 13 12 11 10 10 9
31 33 34 33 32 32 32 31 31 31 31 31 31 31 31 30 30 29 28 29 28 25 22 23 26 27 27 28 28 29 30 29 28 28 27 28 29 30 31 32 32 30 27 23 21 21 22 22 22 21 20 19 18 17 16 16 16 15 15 14 13 13 12
28 31 34 35 36 35 35 35 34 34 34 34 33 33 32 33 33 32 31 31 30 28 25 23 24 26 27 28 27 28 29 29 28 28 28 28 29 29 29 30 31 29 25 20 18 20 20 21 22 22 21 21 20 19 18 18 18 17 17 17 17 16 14
27 28 30 32 35 37 37 37 37 37 37 36 36 35 35 35 36 36 35 34 32 30 28 26 24 24 25 26 27 27 27 29 30 31 30 30 30 30 29 28 28 28 25 21 21 23 24 24 25 25 25 24 22 21 21 20 20 19 19 19 20 19 18
31 30 30 31 32 34 36 38 38 39 39 39 38 38 38 38 38 38 39 38 35 33 31 30 29 27 25 26 27 26 26 27 30 32 33 32 31 31 30 29 29 29 27 25 26 28 29 30 29 28 28 27 26 24 22 21 22 22 21 21 22 22 21
32 32 33 34 34 34 34 35 37 39 39 40 40 39 40 40 40 40 40 40 39 37 35 33 33 32 29 27 26 26 26 27 28 29 31 33 33 31 29 29 31 31 30 29 30 30 30 31 32 30 28 28 28 26 25 24 23 23 23 23 24 24 23
33 33 34 35 36 37 36 35 36 37 38 40 40 40 41 41 41 41 41 41 41 40 39 36 35 35 34 31 29 28 28 28 28 26 26 29 31 32 30 30 32 33 32 32 33 32 31 32 33 32 29 27 28 27 27 27 28 26 24 24 25 25 25
35 36 36 36 37 38 38 38 38 38 38 39 40 40 41 41 42 42 42 42 42 42 42 40 38 37 37 35 33 31 30 29 29 28 26 26 28 31 33 34 34 34 34 34 34 34 34 33 34 33 31 29 28 28 30 31 30 26 24 24 25 25 25
37 37 37 38 39 39 38 39 40 40 40 41 40 40 41 41 42 42 43 43 43 43 43 43 41 40 39 38 36 34 32 30 29 29 28 28 29 30 33 35 36 36 35 34 34 36 37 36 35 34 34 33 32 32 32 29 24 22 23 25 26 26 27
39 39 39 40 40 40 40 41 41 41 42 43 42 42 42 42 43 43 43 43 44 44 44 44 43 42 42 41 39 37 35 33 31 30 30 30 31 32 32 33 34 36 36 34 34 36 38 38 37 35 35 35 36 36 32 26 22 23 26 28 29 29 30
39 41 42 43 42 42 42 43 42 43 43 44 44 44 44 43 44 44 44 44 44 45 45 45 45 44 44 43 42 41 39 37 35 33 31 31 31 33 34 34 33 34 35 36 36 37 38 38 37 36 35 36 37 37 33 28 27 30 31 31 31 31 31
41 43 44 44 43 43 44 45 45 45 45 45 45 46 45 45 45 46 46 46 45 46 46 47 46 46 46 45 45 44 43 42 40 38 35 34 33 33 34 35 35 35 35 35 36 37 37 37 37 37 38 38 38 37 35 33 33 33 32 33 32 33 33
45 46 46 46 44 44 45 46 46 47 47 47 47 47 47 47 48 48 48 48 47 47 47 48 48 48 48 47 47 48 47 46 45 43 41 39 37 35 35 36 38 38 37 36 36 36 37 37 37 39 40 39 38 39 37 36 35 34 34 35 34 34 35
45 47 48 48 48 48 48 48 48 49 49 49 49 49 49 49 50 50 50 50 50 49 49 49 49 49 50 49 49 50 50 49 48 48 46 44 42 39 37 37 38 40 40 38 37 38 38 37 36 38 39 38 38 38 37 35 34 35 35 36 36 35 36
43 44 46 48 49 49 50 50 51 51 51 51 51 51 51 50 50 51 51 52 51 51 51 50 50 50 51 51 51 51 52 51 51 51 50 49 47 45 43 41 40 40 40 40 39 39 40 39 36 35 35 35 35 34 32 31 32 32 34 35 36 36 36
42 43 44 45 46 47 49 50 51 52 52 53 53 53 53 53 53 53 53 53 53 53 52 52 51 51 51 51 51 52 53 53 53 53 53 53 52 50 49 47 44 43 42 42 42 41 40 39 37 35 34 34 35 33 31 31 30 29 31 33 34 34 35
44 43 43 43 44 45 46 48 49 50 51 52 53 53 54 55 55 55 55 55 55 55 54 53 53 52 52 52 52 52 53 54 54 55 55 55 54 54 53 52 50 48 47 46 46 45 43 41 40 39 37 38 38 37 34 33 32 31 32 33 34 34 34
45 45 44 44 45 45 46 48 48 48 49 50 51 52 53 54 55 55 56 56 57 56 56 56 55 54 54 54 53 53 53 54 55 56 56 56 56 56 56 55 54 53 52 52 51 50 48 47 46 44 42 41 41 40 38 37 36 35 35 36 35 35 35
44 45 45 45 46 47 48 49 49 49 49 49 50 51 52 53 54 54 55 55 56 57 57 57 57 57 56 56 55 55 55 54 55 56 56 56 56 56 57 57 56 56 56 56 56 55 54 53 52 51 48 47 46 44 42 41 40 38 38 38 38 36 35
41 42 43 43 44 46 47 48 49 50 51 51 51 51 52 53 54 54 55 55 56 56 57 57 57 58 58 58 58 57 57 56 56 56 57 57 57 57 57 57 58 57 57 58 59 60 59 58 57 57 55 54 52 50 48 47 45 43 42 42 41 40 40
40 40 41 41 42 42 43 45 47 48 49 51 51 51 52 53 54 55 56 56 56 56 57 57 57 58 58 58 59 59 59 59 58 57 58 58 58 58 58 58 58 58 58 58 59 61 62 62 62 61 60 59 58 56 55 53 51 49 48 46 46 46 45
42 42 43 42 41 40 40 42 43 44 45 47 48 50 51 52 54 55 56 57 57 58 58 58 58 58 59 60 60 60 60 60 60 59 59 59 59 58 59 59 59 58 58 58 59 61 62 63 64 64 64 63 62 61 60 59 57 55 54 52 50 50 50

ECMWFFLT1_500_spd_114.txt.gz
Wind_Speed
29 29 28 27 25 25 25 23 22 21 20 19 19 20 19 19 19 18 18 18 17 16 15 14 13 13 13 13 13 13 14 13 13 13 13 14 15 15 15 15 14 13 12 13 13 13 13 13 12 12 12 12 12 11 11 10 10 9 9 9 9 8 8
31 32 30 27 25 24 25 25 24 23 22 21 19 20 20 19 20 19 19 19 18 17 16 15 14 13 13 14 14 14 14 14 14 13 13 14 15 15 15 14 13 12 12 11 12 13 13 13 12 12 11 11 10 10 10 9 9 8 8 8 8 8 7
30 33 31 27 26 25 23 22 22 22 22 22 21 20 21 21 21 20 20 19 19 18 16 15 14 13 13 14 14 15 15 15 15 15 14 14 15 15 15 14 13 12 11 11 11 11 12 13 12 12 11 11 11 10 9 9 8 8 8 8 7 7 7
30 31 31 29 28 28 24 21 21 22 21 20 20 20 21 21 21 20 19 19 18 18 17 16 15 14 14 14 14 15 15 16 16 16 15 15 15 16 16 15 14 12 11 10 10 11 11 12 12 12 12 11 11 10 10 9 9 8 8 8 7 7 6
28 28 28 29 28 27 25 22 21 22 21 19 19 19 20 20 20 20 19 19 18 18 16 15 14 14 14 14 14 15 15 16 17 17 16 16 16 16 16 16 15 13 11 10 10 11 11 11 11 11 11 11 10 10 9 9 9 9 8 8 7 7 7
25 27 27 29 28 27 27 25 23 22 22 21 21 20 20 21 21 21 20 19 19 18 16 14 13 12 13 14 14 15 15 16 17 17 17 17 17 17 17 17 16 15 13 11 10 11 10 10 10 9 10 10 10 9 9 8 8 8 8 8 8 8 8
22 26 28 29 29 29 29 28 25 23 23 23 21 21 21 21 21 20 19 19 20 20 19 18 16 14 13 13 14 14 15 15 16 17 18 18 18 18 18 17 17 16 14 13 11 11 11 10 9 9 8 8 8 9 9 8 8 8 7 7 7 7 7
18 22 25 27 28 29 30 29 27 26 25 23 22 22 21 21 20 19 19 20 21 22 22 21 19 18 16 15 15 15 15 15 15 16 17 18 18 18 18 18 18 17 16 14 13 12 11 10 10 9 9 8 8 8 9 9 8 8 8 8 8 7 7
16 16 20 26 29 27 28 29 28 29 27 25 24 24 23 22 22 21 21 22 22 22 22 21 20 19 19 18 18 18 17 17 16 16 17 18 18 19 19 19 19 18 18 16 14 12 12 11 10 9 9 9 9 9 9 9 9 9 9 9 9 8 8
16 16 17 23 27 25 24 27 29 29 28 27 27 26 25 24 23 23 22 21 21 21 22 22 23 22 22 20 20 19 19 19 18 17 18 19 19 20 20 20 20 20 19 18 16 14 13 12 11 10 10 10 10 9 9 10 10 10 10 10 10 10 10
17 18 17 19 23 23 20 22 27 29 29 29 28 27 27 26 25 24 22 22 23 23 23 23 24 24 23 21 21 21 20 21 20 19 19 20 21 21 21 21 21 20 20 19 18 16 14 13 12 12 12 11 10 10 10 10 10 11 11 11 11 11 11
17 18 18 18 21 22 20 18 21 26 27 27 27 27 28 28 27 27 25 25 27 27 25 25 25 25 23 21 22 23 24 24 23 21 19 20 21 22 22 22 21 20 20 19 18 17 15 14 13 13 13 12 11 11 10 10 10 11 11 11 12 12 12
19 19 19 19 19 22 23 21 20 21 21 21 23 27 28 28 27 27 27 27 28 28 27 26 26 27 26 24 24 24 25 25 26 24 21 20 21 22 22 22 21 20 19 19 18 17 17 15 15 15 14 14 13 12 11 11 11 11 11 11 11 11 11
20 21 20 20 19 20 23 23 21 21 21 20 21 24 24 24 24 24 24 25 25 26 27 27 27 27 28 26 25 24 23 24 25 25 23 21 22 24 24 23 22 21 21 20 19 18 17 17 16 16 15 15 15 14 13 12 12 12 11 10 10 10 10
19 20 20 19 20 20 22 23 22 21 23 23 24 23 21 20 21 21 21 21 21 23 25 27 27 26 26 25 25 24 24 25 25 24 23 23 24 26 26 24 22 21 20 19 20 19 19 18 17 16 16 16 16 15 15 14 14 13 12 11 10 10 10
18 18 20 20 21 21 23 24 23 22 23 24 26 26 24 20 18 19 20 20 20 22 22 24 26 26 25 24 24 24 25 26 26 26 25 24 24 25 26 25 23 21 19 20 21 21 22 22 20 18 17 17 17 17 16 16 16 16 14 13 12 11 10
19 19 21 22 23 23 24 25 25 24 24 24 25 26 26 24 20 18 19 19 20 22 21 19 20 22 24 24 24 24 25 27 27 27 27 26 24 24 24 23 22 22 22 23 24 24 24 24 23 21 19 18 18 18 18 19 19 19 17 16 14 13 13
22 22 23 24 24 25 26 26 27 27 26 26 25 25 26 26 24 21 19 18 19 22 22 20 18 18 20 21 22 23 25 27 29 30 30 29 27 25 24 24 24 25 25 25 26 27 26 24 23 23 22 21 20 20 20 22 22 22 20 19 18 17 16
25 26 26 27 27 28 28 28 28 28 28 28 27 26 25 26 26 25 24 21 20 22 23 22 22 21 20 19 19 21 22 25 28 29 31 32 31 29 27 26 27 28 28 28 28 28 27 26 24 23 23 24 23 23 23 24 24 24 23 22 21 20 19
26 28 29 29 29 29 29 30 30 30 30 29 29 28 27 27 27 27 27 25 23 22 22 21 21 23 24 22 19 19 21 23 26 28 30 33 33 32 30 29 29 30 30 30 30 29 28 27 26 26 26 26 26 26 26 26 26 26 25 25 24 24 23
25 27 29 30 31 31 31 31 31 31 31 30 31 30 29 29 29 29 29 28 26 25 24 23 22 23 24 24 22 20 20 22 25 28 30 32 33 32 31 30 29 30 30 31 32 31 30 28 27 28 28 28 28 27 26 26 26 26 26 27 27 27 26
26 27 28 29 31 32 33 33 33 33 33 33 33 33 32 32 32 32 32 31 29 28 27 27 27 26 25 25 24 23 23 23 25 27 29 31 32 32 30 29 28 28 28 29 31 32 32 32 31 30 30 30 29 28 27 26 26 26 28 29 30 30 29
29 29 29 29 30 31 32 33 34 35 36 36 36 36 36 35 35 35 34 34 33 32 31 30 30 30 30 29 27 26 26 26 27 27 28 29 30 31 30 29 29 28 28 29 30 31 33 34 34 33 33 32 30 29 27 26 27 29 31 32 32 32 30
34 34 33 32 32 32 33 34 35 35 36 37 37 37 37 37 37 37 37 36 36 35 35 34 33 32 32 32 32 30 29 29 29 28 29 29 29 29 29 29 30 30 30 31 31 31 33 35 36 35 34 33 32 30 29 29 30 33 33 33 33 31 30
38 39 39 37 37 36 36 36 37 37 37 38 38 38 37 37 37 37 37 37 38 38 37 36 36 35 34 34 34 33 32 30 30 30 30 30 30 29 29 29 28 29 30 31 32 32 33 35 35 35 35 34 32 31 32 33 34 35 34 34 34 33 32
37 40 41 40 39 39 39 39 38 38 38 39 39 39 39 38 38 38 37 37 38 38 39 38 38 37 36 36 35 35 34 33 31 31 31 31 31 31 30 29 28 27 29 30 31 32 33 34 35 35 35 36 35 34 34 36 37 37 37 36 36 36 35
38 40 41 41 40 40 40 40 40 39 39 39 39 39 39 40 39 39 39 39 38 38 38 38 38 38 38 38 37 36 36 35 33 32 31 32 33 33 31 30 28 28 29 29 29 30 31 33 35 36 37 38 38 37 37 37 38 39 39 39 38 37 36
39 40 42 43 43 43 42 42 41 40 40 40 40 40 40 40 40 40 39 40 40 40 39 38 38 38 38 38 38 38 37 37 36 34 33 33 34 34 33 32 30 30 30 31 31 31 31 32 34 36 38 39 38 38 38 38 38 39 41 40 39 38 37
40 41 42 43 44 43 43 42 42 42 42 41 41 41 41 41 41 41 41 41 41 41 41 40 40 40 39 38 38 39 39 38 38 37 36 36 36 36 35 35 34 33 32 33 33 33 33 33 33 34 37 38 37 38 38 39 39 40 42 42 41 39 38
41 42 42 43 44 44 44 43 43 43 43 43 43 43 43 43 43 43 42 42 42 42 42 42 42 42 41 40 40 40 40 40 40 40 40 39 39 38 38 38 37 37 36 35 35 35 35 35 34 34 35 35 36 38 39 40 41 41 42 43 43 42 40
40 41 42 43 44 45 46 46 46 46 46 45 45 45 45 45 45 46 46 45 45 44 44 44 44 44 44 43 43 43 43 43 43 43 43 42 41 41 41 40 40 40 40 39 38 38 38 37 37 36 35 35 36 38 39 40 40 41 43 44 44 43 42
39 39 39 40 41 43 45 46 47 48 48 47 47 47 47 47 48 48 48 48 47 47 47 47 47 46 46 46 46 45 45 46 46 46 46 45 45 44 44 43 43 43 42 42 41 41 41 40 40 39 37 37 37 38 39 40 40 40 42 44 45 45 43
39 39 38 38 39 40 42 44 45 46 47 47 47 47 48 49 50 50 50 50 49 49 49 49 49 49 49 49 48 48 47 47 47 48 48 48 48 48 47 47 46 46 46 45 44 44 43 43 43 42 40 39 39 39 40 41 41 41 42 44 45 45 44
39 40 40 39 39 40 41 42 43 44 44 45 46 46 47 48 49 50 50 51 51 51 52 52 52 52 52 52 52 51 50 49 48 48 49 49 49 50 50 50 49 49 49 48 47 47 46 46 46 46 45 43 41 41 41 42 42 42 42 43 45 45 43
38 39 40 40 41 41 42 42 42 43 43 44 45 46 46 47 47 48 49 50 51 52 52 53 53 53 53 54 54 54 53 52 51 50 50 50 50 50 50 51 52 52 51 51 51 50 49 49 49 49 48 47 45 44 44 44 43 43 43 43 44 44 43
38 38 39 40 41 41 42 43 44 44 45 45 46 46 46 46 47 47 48 48 49 50 51 52 53 53 54 54 55 55 54 54 53 52 52 51 51 51 51 51 52 53 53 53 54 53 53 52 52 52 52 51 50 49 48 47 47 46 45 45 45 44 43
39 39 40 41 41 41 41 42 44 45 46 46 46 46 47 48 48 48 48 48 48 49 50 51 52 52 53 54 54 55 55 55 54 54 53 53 52 52 52 52 52 54 54 54 54 55 56 55 55 55 55 55 54 53 53 52 51 50 49 49 49 48 47
40 41 42 42 42 42 42 42 44 45 46 46 46 46 47 48 48 49 49 49 49 49 50 50 51 52 52 53 54 55 56 56 56 55 54 54 54 53 53 53 53 53 54 55 55 56 57 58 58 57 57 57 57 57 57 56 55 55 54 54 54 54 53

ECMWFFLT1_500_spd_117.txt.gz
Wind_Speed
28 27 24 22 21 21 21 21 21 22 23 23 22 21 20 19 19 19 19 19 18 18 17 15 15 15 16 17 17 17 16 16 17 16 16 16 16 16 17 17 16 16 16 15 14 14 14 13 13 13 13 12 11 10 10 9 8 8 8 7 7 7 7
30 28 25 23 21 22 23 22 22 22 24 24 22 21 20 19 19 19 19 18 18 17 16 15 15 15 16 17 18 18 17 17 18 18 17 17 17 16 17 17 16 16 16 15 15 15 14 13 13 12 12 12 11 10 10 9 8 8 8 7 7 7 7
31 30 27 25 24 23 24 24 23 23 24 24 23 21 20 20 19 19 19 19 18 17 16 15 15 14 15 16 18 19 19 18 18 19 19 18 17 17 17 16 16 16 16 16 15 15 15 14 13 13 12 12 11 10 10 9 9 8 8 7 7 7 7
31 32 30 28 27 25 24 24 24 23 24 23 23 22 21 21 20 20 19 19 19 18 17 16 16 15 16 17 17 19 20 20 19 19 19 19 18 17 17 16 16 16 16 16 16 16 15 15 15 14 13 13 12 11 11 10 9 9 8 7 7 7 7
30 33 32 30 28 27 25 24 24 24 23 21 21 21 22 22 21 20 19 19 19 18 18 17 16 16 16 17 17 18 19 19 19 18 18 18 19 18 18 17 15 15 15 15 16 16 16 16 15 15 15 14 14 13 12 12 11 11 10 9 9 8 8
28 32 32 30 29 29 27 25 25 24 23 21 20 19 21 22 22 21 20 19 19 18 17 16 15 15 15 16 16 17 17 18 18 18 18 18 18 19 18 17 16 15 15 14 15 16 16 16 17 16 15 15 14 14 14 13 13 13 12 11 11 10 10
24 31 31 30 30 31 29 26 26 27 25 23 22 21 21 22 23 23 21 19 19 18 18 18 17 17 17 16 16 16 16 17 18 18 18 18 18 18 18 18 18 17 15 15 14 15 16 16 17 17 16 15 14 14 14 13 13 13 13 13 12 12 12
22 29 31 30 32 32 29 27 28 28 28 26 25 24 23 22 22 22 21 20 19 20 20 20 20 20 20 19 18 17 17 17 17 18 19 19 18 17 18 18 19 18 17 15 15 15 16 16 16 16 16 15 14 14 13 13 13 13 13 13 13 13 13
19 24 28 30 32 32 30 29 30 30 29 28 27 26 24 22 22 21 21 21 21 21 22 22 21 21 22 22 21 21 20 19 19 18 19 19 18 18 18 18 18 18 18 16 15 15 16 16 16 15 15 14 14 14 13 12 12 12 13 13 13 13 13
19 21 25 29 33 33 31 30 32 32 29 27 27 26 25 23 22 22 22 23 23 23 23 23 23 22 22 23 23 22 22 21 20 20 20 20 19 19 18 18 17 18 18 16 15 15 15 16 16 15 15 14 14 13 13 12 12 12 12 13 13 13 13
18 20 22 26 31 32 32 31 32 32 30 28 28 27 27 26 26 24 23 23 24 24 25 25 24 24 23 23 23 22 22 22 22 21 21 21 21 21 19 18 17 17 18 17 17 16 15 15 15 15 15 14 13 12 12 12 12 12 12 12 13 13 13
16 18 19 22 26 29 30 31 33 32 32 31 30 30 30 29 27 25 24 24 24 25 26 25 25 26 26 25 24 21 20 20 21 22 22 23 23 22 21 20 18 17 18 18 19 18 17 16 16 15 15 13 12 11 11 11 11 11 12 12 13 13 13
17 17 17 18 21 24 25 28 31 32 32 33 33 32 31 29 28 27 25 25 25 25 26 27 27 28 28 26 24 22 20 20 20 21 22 22 22 22 21 21 20 19 19 19 20 20 20 19 18 17 16 14 13 12 11 11 11 11 12 12 13 13 13
20 19 17 17 18 19 20 22 24 26 29 32 35 34 32 32 32 31 29 29 29 28 27 28 28 28 27 26 25 24 24 23 24 24 24 23 22 21 21 21 21 22 22 21 21 21 21 21 21 20 18 16 15 14 13 12 12 12 12 13 13 13 14
22 21 20 18 18 18 19 19 19 20 21 25 29 32 33 33 34 33 33 32 31 31 31 31 30 28 27 26 26 27 27 26 27 27 27 26 24 22 22 22 22 23 23 23 23 23 23 23 23 23 21 20 18 16 14 13 14 14 14 14 14 14 14
24 24 22 22 21 19 19 19 20 20 19 18 21 24 26 29 31 33 35 35 34 33 33 33 32 31 29 28 27 28 28 27 28 28 27 27 27 26 24 24 25 25 24 24 24 24 24 24 25 25 25 24 22 20 17 16 16 16 16 16 16 16 15
25 25 23 24 24 21 19 20 19 19 19 17 18 20 21 22 24 26 29 32 33 33 32 31 32 32 30 29 29 28 28 28 27 27 27 27 27 27 26 25 25 26 26 26 26 26 25 25 25 26 27 26 25 23 21 20 20 19 19 19 19 18 17
25 24 23 24 25 23 22 23 21 21 20 18 17 19 21 20 19 19 21 25 27 29 29 29 29 29 28 28 30 30 30 29 28 27 27 27 27 27 27 26 25 27 28 28 28 27 26 25 25 27 28 28 27 25 24 24 24 24 23 22 21 19 18
24 23 23 24 24 23 24 24 24 24 24 21 20 21 22 22 21 20 20 21 22 23 26 26 25 25 25 25 27 29 30 29 29 28 28 28 28 29 28 27 26 26 27 28 29 28 27 26 26 27 28 29 28 28 27 27 27 27 26 25 23 21 20
22 22 22 22 23 23 23 24 24 24 24 24 24 24 25 25 25 24 23 22 21 22 22 22 21 21 21 21 22 23 24 26 26 26 27 27 28 30 30 28 27 26 25 25 27 29 28 27 27 28 29 30 30 30 29 29 30 30 29 27 25 24 22
21 22 22 23 23 23 23 24 24 24 24 24 25 26 26 26 26 26 24 23 23 24 23 23 22 19 17 17 18 18 18 20 21 24 25 26 28 29 30 29 29 28 26 26 27 29 30 30 29 29 30 31 32 31 31 32 32 32 31 29 27 26 24
23 23 23 25 26 26 25 25 25 25 25 25 25 25 25 25 25 26 26 25 26 26 27 27 27 23 18 18 19 19 17 17 18 19 21 22 23 25 26 27 28 29 30 31 31 32 33 33 32 31 32 32 33 33 33 33 33 32 31 30 30 29 27
26 25 25 25 27 27 28 28 27 28 28 28 27 27 26 26 25 25 26 27 27 28 28 28 28 25 22 21 23 23 22 22 22 21 21 21 21 22 23 24 25 27 29 30 31 32 34 36 35 34 34 34 34 34 34 34 33 32 32 32 32 31 30
28 28 27 26 27 27 28 29 29 30 30 30 31 30 30 29 29 28 28 28 29 29 29 29 28 27 25 24 24 25 24 25 26 27 28 27 24 23 22 22 23 24 26 28 29 30 32 34 35 35 35 36 35 35 34 34 34 34 34 34 33 33 32
31 31 31 30 29 29 29 30 30 30 31 31 32 32 32 32 32 32 31 31 30 30 31 31 30 29 27 26 26 27 27 27 27 28 30 29 27 26 25 24 24 24 24 26 28 30 31 32 33 33 35 36 36 36 35 35 35 36 36 36 35 34 33
33 33 33 33 33 33 33 33 33 33 33 33 33 33 33 33 33 33 32 32 31 31 32 32 32 31 30 29 28 29 29 30 29 29 29 30 29 29 29 28 27 25 25 26 27 28 30 31 32 32 34 34 35 36 36 36 37 38 39 38 37 36 35
36 36 36 36 36 36 37 37 37 37 37 37 36 36 35 35 35 35 34 33 32 32 32 32 32 32 31 30 30 30 31 32 32 32 31 31 31 31 31 31 29 28 28 28 28 27 28 29 30 32 34 35 35 35 36 37 39 41 41 40 39 39 38
40 41 41 41 41 41 41 41 41 42 42 41 41 40 39 38 38 38 38 37 36 35 34 34 33 33 33 32 32 32 32 33 34 34 34 33 33 32 32 33 32 31 31 31 30 29 28 29 29 31 33 34 35 34 34 37 40 43 43 42 40 40 39
45 46 47 47 46 45 45 44 44 44 44 44 44 44 44 42 42 41 40 40 39 39 38 37 36 35 35 35 34 34 34 34 35 35 35 35 35 34 33 34 34 34 33 34 33 31 30 29 29 30 30 32 33 32 32 35 39 42 43 43 41 41 40
47 49 50 50 49 48 47 46 45 44 44 44 44 45 45 45 44 43 42 42 41 40 40 39 38 37 37 36 36 36 35 35 35 35 36 36 36 36 35 35 35 35 35 35 35 34 33 32 32 31 31 32 32 32 32 33 35 38 40 41 41 41 41
44 46 48 48 47 47 46 45 44 44 44 44 44 44 45 45 44 44 43 43 42 41 41 41 40 40 39 38 38 37 37 37 36 36 36 36 36 36 36 35 35 36 36 36 36 36 36 36 35 34 34 34 34 34 34 34 34 35 36 38 38 39 40
42 43 44 45 45 45 45 45 45 45 45 46 46 46 46 46 46 46 45 44 44 43 43 43 42 42 41 41 40 40 39 39 38 38 37 37 37 37 37 36 36 36 36 36 37 37 38 38 38 38 38 37 37 37 37 36 36 36 36 36 37 38 39
42 43 44 45 46 46 46 46 46 47 47 47 48 47 47 47 47 47 46 46 46 46 45 45 45 45 44 44 43 43 43 42 42 41 40 40 39 39 39 39 39 38 38 38 38 38 39 40 41 41 41 41 41 41 41 40 39 38 38 38 38 39 40
42 43 44 45 46 47 47 47 48 48 49 49 50 49 49 49 49 48 48 48 48 48 48 48 47 47 47 47 47 46 46 45 45 45 45 44 43 43 42 42 42 42 42 41 40 40 41 41 42 43 44 45 45 44 44 45 44 42 41 40 41 41 41
41 42 44 45 46 46 47 48 49 49 50 50 51 51 51 51 51 51 50 51 51 51 50 50 50 50 50 50 49 49 48 48 48 48 48 48 47 47 46 46 45 45 45 45 45 44 44 44 44 45 46 47 48 48 48 48 48 47 46 44 44 43 43
42 43 43 44 45 45 46 47 48 49 49 50 50 51 51 52 52 52 52 52 52 52 52 52 52 52 52 52 52 51 51 51 50 50 50 51 51 51 51 50 49 49 49 49 48 48 48 48 48 48 48 48 49 49 50 51 51 52 50 49 48 47 46
42 43 43 43 44 45 45 46 47 48 49 49 49 50 50 51 51 52 52 52 52 52 52 52 52 52 52 52 52 52 53 52 52 52 53 53 53 54 53 53 53 52 52 52 52 52 52 52 51 51 51 50 50 51 51 52 53 54 54 54 52 51 51
43 43 43 43 43 44 45 45 47 48 49 49 49 49 50 50 51 51 52 52 52 52 52 52 52 53 53 53 53 53 53 53 53 53 54 54 55 55 55 55 55 55 55 54 54 54 54 55 55 54 54 54 53 54 54 53 54 54 55 56 56 55 55

ECMWFFLT1_500_spd_123.txt.gz
Wind_Speed
31 30 28 26 24 23 22 21 21 21 22 22 21 21 21 21 20 19 19 19 19 18 18 18 18 17 16 14 13 12 11 11 11 11 12 12 12 12 13 13 14 14 15 17 17 17 16 15 15 14 13 12 11 10 10 9 8 8 8 7 7 6 5
34 31 30 27 25 24 23 22 22 22 23 23 22 21 21 22 21 20 20 20 19 19 18 18 18 18 18 17 15 14 13 13 13 12 12 12 12 13 13 13 13 14 15 15 16 15 15 14 14 13 12 12 11 10 10 9 8 8 8 7 7 6 5
37 34 32 29 26 25 24 23 23 23 24 23 23 22 22 23 23 21 20 20 20 19 19 18 18 19 19 19 18 16 15 15 14 14 13 13 13 13 13 13 13 14 14 14 14 14 14 13 12 12 12 11 11 10 9 8 8 7 7 6 6 5 5
39 36 34 31 28 27 25 25 24 24 25 25 25 25 24 25 24 23 21 21 21 21 20 18 17 18 19 19 19 19 17 17 16 15 15 15 14 14 13 13 13 13 13 13 13 13 13 12 12 12 11 11 10 9 8 8 7 6 6 6 5 5 4
38 34 33 32 30 28 26 26 26 26 26 26 26 26 26 25 25 24 23 22 22 22 21 19 17 16 17 18 19 19 18 18 17 16 16 16 16 15 15 14 14 14 14 14 14 13 13 12 12 12 11 11 10 9 8 8 8 7 6 6 6 5 5
35 33 31 32 30 29 28 28 28 28 27 27 27 27 27 26 25 25 24 23 23 22 22 20 19 18 18 18 19 19 19 19 18 18 18 18 17 17 16 16 16 15 15 15 14 14 13 13 12 12 11 11 10 10 9 9 9 8 8 7 7 7 6
31 33 33 32 31 30 29 29 29 29 28 28 28 28 28 27 27 26 25 24 24 23 23 22 22 21 20 19 19 19 20 20 19 19 18 18 19 18 18 17 17 17 16 16 15 15 14 13 13 12 12 12 11 11 11 11 10 10 9 9 9 8 8
23 28 31 33 32 31 31 31 31 30 30 29 29 29 29 28 28 27 26 25 25 24 24 24 23 23 22 21 20 20 20 20 20 19 19 19 19 19 19 19 18 18 18 17 16 16 15 14 14 14 13 13 13 13 13 13 12 12 12 11 11 11 10
16 19 23 26 31 33 32 33 33 32 32 31 29 29 29 29 29 28 27 26 26 25 25 24 24 24 23 22 21 21 20 20 20 20 20 20 20 19 20 20 19 19 18 18 17 17 16 16 15 15 15 15 16 16 15 15 15 14 14 14 13 13 13
16 17 18 20 25 31 33 33 33 34 34 33 31 30 30 30 30 29 28 28 27 26 26 25 25 25 25 24 24 23 23 22 22 22 22 23 22 21 21 21 20 20 20 19 18 17 16 16 16 16 17 17 17 17 17 16 15 15 15 14 14 14 14
16 18 19 19 21 26 31 33 34 36 36 34 32 32 32 32 31 30 29 29 28 28 27 27 26 26 26 26 25 25 24 24 24 25 25 26 25 24 23 22 22 22 22 21 21 19 18 17 16 16 16 17 17 17 16 15 15 14 14 14 14 15 15
17 17 19 21 21 24 29 33 37 39 38 35 34 33 34 34 32 31 30 30 30 30 30 29 28 28 28 28 28 27 27 26 26 27 27 27 26 26 25 24 23 23 23 23 23 22 20 19 18 17 16 16 16 16 15 15 14 14 14 14 14 15 15
16 17 18 19 21 23 26 30 38 42 40 38 37 36 36 35 34 32 31 31 32 32 32 31 30 30 29 29 29 29 29 28 28 28 28 27 27 26 25 25 24 24 24 24 24 23 22 21 20 19 17 16 16 16 16 15 15 15 15 15 15 15 15
17 17 17 18 19 21 23 27 34 41 43 41 40 39 38 37 36 34 32 33 33 33 33 33 32 31 31 31 31 30 30 30 29 28 27 27 26 26 26 26 26 26 25 24 24 24 23 23 22 21 19 18 18 17 17 17 17 17 17 17 16 16 15
16 17 18 18 18 19 21 24 27 33 41 45 43 40 38 37 36 35 34 34 33 33 34 34 34 33 32 32 31 31 31 30 29 28 27 26 26 26 26 26 27 26 26 25 25 24 24 23 23 22 22 21 20 19 19 18 19 19 19 19 18 17 16
15 16 17 18 18 18 18 21 23 26 35 45 44 40 38 37 37 36 35 35 35 33 32 32 33 33 32 32 32 32 32 32 30 28 27 26 27 27 27 27 27 27 27 26 26 26 25 25 25 24 24 23 23 22 21 20 21 21 21 20 20 19 18
19 18 18 18 18 19 18 19 20 19 27 39 43 40 38 36 36 37 36 35 34 33 32 32 32 31 30 31 32 33 33 32 31 30 29 29 29 28 28 27 27 28 28 27 27 27 27 27 27 26 26 25 25 24 24 23 23 23 23 22 21 21 20
23 22 22 20 19 20 19 19 19 18 20 28 36 39 39 37 37 38 38 38 38 36 35 34 33 31 31 32 33 33 33 33 32 31 31 31 31 30 29 28 28 28 28 28 28 28 29 29 28 28 27 27 26 26 26 26 26 26 25 24 23 23 22
27 26 26 24 22 21 20 17 18 19 19 20 24 32 38 40 40 40 41 42 42 40 39 37 36 35 35 35 34 33 32 33 33 33 33 33 32 31 30 29 29 29 29 28 29 29 29 29 29 29 28 28 28 28 28 28 29 28 27 26 25 24 23
30 28 28 27 25 24 23 21 18 19 19 17 17 20 26 31 35 38 41 43 42 40 40 40 39 39 39 38 36 34 33 33 33 33 33 34 34 34 33 32 31 31 31 31 31 31 31 30 30 30 29 29 29 29 30 30 29 29 29 28 27 26 25
30 29 29 28 27 25 25 25 24 23 22 19 18 17 17 18 20 24 29 35 38 40 41 41 39 38 38 38 38 37 35 35 34 33 33 34 35 36 35 34 34 34 34 34 34 33 33 32 32 32 31 30 30 30 31 31 30 30 30 30 29 29 28
26 27 28 28 28 27 27 26 25 26 25 24 22 21 19 18 17 15 15 19 23 28 33 36 36 36 37 39 39 39 38 37 36 35 34 35 37 38 37 36 36 37 37 37 36 35 36 36 35 34 33 31 31 32 33 32 32 31 31 31 31 31 30
24 24 25 26 27 28 28 27 25 26 26 26 27 25 23 22 21 16 14 14 14 16 20 23 24 24 26 29 32 34 37 40 40 39 38 39 40 40 39 38 38 38 39 39 38 36 37 37 37 36 35 34 33 34 34 34 34 33 32 32 32 32 32
25 24 25 25 25 26 27 26 26 26 27 27 28 28 27 27 26 22 18 16 14 13 15 16 16 17 17 19 21 22 26 32 36 37 37 39 40 41 41 40 39 39 39 38 37 36 35 35 35 35 35 35 35 35 35 35 35 36 35 34 33 33 34
28 28 27 26 25 26 26 26 26 27 28 29 28 28 27 28 29 29 28 24 21 18 17 16 15 16 16 16 17 18 18 20 23 25 26 27 29 33 35 36 36 35 33 29 28 30 33 35 35 35 36 36 37 37 36 36 36 37 36 36 36 36 35
29 30 30 29 28 28 27 28 27 27 27 27 28 27 26 25 26 28 27 26 24 23 22 20 18 18 18 17 18 20 19 17 16 17 19 20 20 22 23 24 26 27 25 22 21 22 26 29 30 32 34 36 37 38 38 37 37 36 36 37 38 38 38
29 30 30 31 31 31 30 30 31 29 28 27 27 28 27 26 25 25 24 23 23 23 23 23 22 21 22 22 23 24 25 24 21 19 19 19 20 20 20 20 21 22 23 23 23 23 23 23 23 24 26 28 29 31 32 34 35 36 36 37 38 39 38
29 30 31 32 32 32 33 33 33 33 32 31 30 30 30 29 27 26 25 24 23 23 23 24 24 22 22 22 23 25 27 28 27 25 23 22 21 22 22 22 23 23 23 24 25 25 26 27 27 26 26 25 25 25 26 28 29 30 32 33 34 35 35
31 32 33 34 34 34 34 34 35 36 36 35 34 32 32 32 31 29 28 27 26 24 23 24 23 23 22 21 21 23 24 26 26 26 26 25 24 23 23 23 23 24 24 25 26 26 27 28 29 30 30 29 28 27 27 28 28 28 29 29 29 30 31
34 35 35 36 36 37 37 36 36 37 37 37 37 36 35 34 33 33 32 31 30 28 27 26 25 24 24 23 22 23 23 24 24 25 25 26 25 25 24 24 24 24 25 26 26 27 27 28 28 29 30 30 31 30 30 31 31 31 31 31 30 29 29
35 36 38 39 39 39 40 40 39 39 39 39 39 38 38 37 36 36 35 35 34 33 32 31 30 30 29 28 27 27 26 26 26 27 27 27 27 27 27 27 27 27 27 28 28 29 29 29 30 30 30 30 31 31 31 32 33 34 34 34 34 32 31
37 38 38 39 40 41 41 42 42 42 42 42 41 41 40 40 39 39 39 38 38 37 37 36 35 35 35 34 33 32 32 31 31 31 31 31 31 31 32 31 31 31 31 31 31 31 31 31 32 32 32 33 33 33 34 34 35 36 36 36 36 36 35
40 40 39 39 40 41 42 43 43 43 43 43 43 43 43 43 42 42 42 42 41 40 40 40 39 39 38 38 38 37 37 37 37 36 36 35 35 35 35 36 36 36 36 36 35 35 35 35 35 35 35 35 36 36 36 37 37 37 38 38 38 38 37
41 42 41 41 41 41 42 42 42 42 42 43 43 44 44 44 44 44 44 44 44 44 43 43 42 42 42 42 42 41 41 41 41 41 41 41 41 40 40 39 39 39 39 39 39 39 38 38 38 38 38 38 38 38 38 38 38 38 38 39 39 39 39
42 43 44 43 43 43 43 42 42 41 41 41 42 43 43 44 45 46 46 47 47 47 47 47 46 46 46 45 45 45 45 45 44 45 45 45 45 45 44 44 43 43 42 42 42 41 41 40 40 40 40 40 40 40 40 40 39 39 39 40 40 41 41
41 43 45 46 46 45 44 44 44 43 43 42 42 42 43 43 44 45 48 49 50 50 50 50 50 50 50 49 49 48 48 48 48 48 48 47 47 47 47 47 47 46 45 45 44 44 43 42 42 41 41 41 41 41 41 41 41 41 41 41 42 42 43
41 42 43 44 47 47 46 46 46 45 45 45 45 45 45 45 44 45 46 48 50 51 52 52 52 51 52 51 51 50 50 49 49 49 49 49 49 48 48 49 49 48 48 47 47 47 46 45 45 44 44 43 43 43 43 43 43 44 44 44 44 44 44
42 41 39 38 40 43 45 46 47 47 48 48 48 48 47 47 47 46 46 47 48 49 49 50 50 50 50 50 50 50 49 49 49 49 49 49 49 49 49 49 49 49 49 49 49 49 49 49 48 48 48 47 47 47 47 47 47 47 47 47 47 47 47